PSLV R/B, 44805

Orbit data source: Space-Track

PSLV R/B, 44805 is space debris in SSO originally from a launch on Wed, 27 Nov 2019 UTC launched from the Sirharikota (SRI). Debris objects in space refer to the collection of defunct objects orbiting the Earth. Examples of debris include non-operational satellites, rocket bodies, and fragments generated from explosions, collisions, or faulty payload assembly.

Loading next visibility...
Identifier
44805, 2019-081B
Orbit
SSO
Country
Flag of ININ / IND
Related business
Manufacturer
VSSC/LPSC
Mission
Spacecraft
Bus & Motor
PS-4, Unknown motor
Mass
920 kg wet, 920 kg dry
Launch date (UTC)
2019-11-27 (6 years ago)
Launch vehicle
Unknown
Launch site
Sirharikota (SRI)
Object type
Payload
Rocket body
Debris
Shape & HBR
Cyl + Cyl + 2 Nozzle, 1.6 m
Radar Cross Section
3.727 m², Large (>1 m²)

Expand to show TLE details & history
Last TLE update: 12 hours ago

TLE from 12 hours ago
0 PSLV R/B
1 44805U 19081B   25340.80211298  .00031444  00000-0  62734-3 0  9996
2 44805  97.2021  15.9719 0025214  87.1126 273.3009 15.46444572334494
Epoch: 2025-12-06T19:15Z
TLE epoch observation values (Epoch: 2025-12-06T19:15:02.561Z)
Latitude
-0.00003°
Longitude
11.38661°
Altitude
429.324 km
Speed
7.654 km/s
True Right ascension
01h 03m 53s
True Declination
0° 00' 00"
Sunlit
Object was in full shadow at epoch
Visualization orbit readout
Latitude
Unknown
Longitude
Unknown
Altitude
Unknown
Speed
Unknown
Apparent Right ascension
Unknown
Apparent Declination
Unknown
Sunlit
N/A
Visualization observer readout
Local Sidereal Time
05:39:38
Azimuth
Unknown
Elevation
Unknown
Doppler factor
Unknown
Orbital elements
Apogee altitude
441.21 km
Perigee altitude
406.908 km
Semi-major axis
6,802.196 km
Eccentricity
0.00252
Inclination
97.2021°
RAAN
15.9719°
Arg. of periapsis
87.1126°
True anomaly
273.0124°
Mean anomaly
273.3009°
Eccentric anomaly
273.15665°
Mean motion
3.86874 °/min
Orbital period
93.05 mins
BSTAR
0.00062734
Loading maneuver chart data...
Computing Atmospheric mass density...
Loading historical data...
Loading historical data...
Loading historical data...
Loading historical data...
Loading historical data...
Loading historical data...
Loading historical data...

Documentation

Showing up to 5 results
|